This demonstration page uses our WeatherBlox Daily Observations layout. Learn more.

Left ArrowRight Arrow

Hourly Observations for March 4, 2017

Temp ( °F °C ) Dew Point ( °F °C ) Humidity (%) Winds ( mph kmh ) Pressure ( in mb ) Visibility ( mi km ) Precip ( " mm )
12:53 am 00:53 Clear 23 -5 20 -6.7 88 88 N N/A 30.65 1038 10 16.0934 N/A
1:53 am 01:53 Cloudy 25 -3.9 21 -6.1 85 85 N N/A 30.65 1038 10 16.0934 N/A
2:53 am 02:53 Cloudy 26 -3.3 21 -6.1 81 81 N N/A 30.63 1037 10 16.0934 N/A
3:53 am 03:53 Cloudy 27 -2.8 22 -5.6 81 81 N N/A 30.64 1038 10 16.0934 N/A
4:53 am 04:53 Cloudy 28 -2.2 22 -5.6 78 78 N N/A 30.65 1038 10 16.0934 N/A
5:53 am 05:53 Cloudy 29 -1.7 23 -5 78 78 N N/A 30.66 1038 10 16.0934 N/A
6:53 am 06:53 Cloudy 29 -1.7 21 -6.1 72 72 S 3 6 30.67 1039 9 14.48406 N/A
7:04 am 07:04 Cloudy with Light Snow 29 -1.7 22 -5.6 75 75 VRB 5 7 30.68 1039 3 4.82802 N/A
7:10 am 07:10 Cloudy with Light Snow 28 -2.2 22 -5.6 78 78 S 5 7 30.68 1039 1.75 2.816345 N/A
7:20 am 07:20 Cloudy with Light Snow 27 -2.8 23 -5 85 85 VRB 3 6 30.68 1039 1.5 2.41401 N/A
7:29 am 07:29 Mostly Cloudy with Snow 27 -2.8 24 -4.4 89 89 N N/A 30.68 1039 0.5 0.80467 N/A
7:53 am 07:53 Mostly Cloudy with Snow 27 -2.8 25 -3.9 92 92 N N/A 30.68 1039 0.5 0.80467 0.02 0.508
8:18 am 08:18 Cloudy with Snow 27 -2.8 25 -3.9 92 92 VRB 5 7 30.68 1039 0.25 0.402335 0.02 0.508
8:53 am 08:53 Cloudy with Snow 27 -2.8 26 -3.3 96 96 ESE 3 6 30.7 1040 0.5 0.80467 0.05 1.27
9:38 am 09:38 Cloudy with Light Snow 28 -2.2 26 -3.3 92 92 VRB 6 9 30.71 1040 1.75 2.816345 0.02 0.508
9:42 am 09:42 Cloudy with Light Snow 28 -2.2 26 -3.3 92 92 VRB 6 9 30.71 1040 3 4.82802 0.02 0.508
9:53 am 09:53 Cloudy 29 -1.7 25 -3.9 85 85 VRB 6 9 30.7 1040 8 12.87472 0.02 0.508
10:00 am 10:00 Cloudy 29 -1.7 25 -3.9 85 85 ESE 7 11 30.71 1040 10 16.0934 N/A
10:32 am 10:32 Mostly Cloudy 30 -1.1 25 -3.9 82 82 VRB 7 11 30.71 1040 10 16.0934 N/A
10:39 am 10:39 Mostly Cloudy 29 -1.7 25 -3.9 85 85 ESE 8 13 30.71 1040 10 16.0934 N/A
10:53 am 10:53 Mostly Cloudy 30 -1.1 26 -3.3 85 85 VRB 5 7 30.69 1039 10 16.0934 N/A
11:29 am 11:29 Cloudy 31 -0.6 25 -3.9 79 79 VRB 3 6 30.68 1039 10 16.0934 N/A
11:41 am 11:41 Cloudy 31 -0.6 26 -3.3 82 82 E 9 15 30.68 1039 10 16.0934 N/A
11:49 am 11:49 Cloudy 30 -1 27 -3 86 86 ESE 5 7 30.68 1039 10 16.0934 N/A
11:53 am 11:53 Cloudy 31 -0.6 26 -3.3 82 82 ESE 9 15 30.68 1039 10 16.0934 N/A
12:53 pm 12:53 Cloudy 34 1.1 27 -2.8 76 76 ESE 9 15 30.65 1038 10 16.0934 N/A
1:00 pm 13:00 Mostly Cloudy 34 1.1 28 -2.2 79 79 E 7 11 30.65 1038 10 16.0934 N/A
1:53 pm 13:53 Mostly Cloudy 38 3.3 27 -2.8 65 65 VRB 6 9 30.6 1036 10 16.0934 N/A
2:53 pm 14:53 Mostly Sunny 39 3.9 28 -2.2 65 65 E 10 17 30.57 1035 10 16.0934 N/A
3:53 pm 15:53 Sunny 41 5 27 -2.8 57 57 ESE 5 7 30.55 1035 10 16.0934 N/A
4:53 pm 16:53 Sunny 41 5 27 -2.8 57 57 E 8 13 30.54 1034 10 16.0934 N/A
5:53 pm 17:53 Sunny 40 4.4 26 -3.3 58 58 E 10 17 30.54 1034 10 16.0934 N/A
6:53 pm 18:53 Clear 36 2.2 25 -3.9 64 64 E 8 13 30.54 1034 10 16.0934 N/A
7:53 pm 19:53 Clear 35 1.7 26 -3.3 70 70 ENE 7 11 30.54 1034 10 16.0934 N/A
8:53 pm 20:53 Clear 34 1.1 25 -3.9 70 70 E 7 11 30.55 1035 10 16.0934 N/A
9:53 pm 21:53 Clear 32 undefined 25 -3.9 75 75 E 7 11 30.55 1035 10 16.0934 N/A
10:53 pm 22:53 Clear 31 -0.6 24 -4.4 76 76 E 7 11 30.54 1034 10 16.0934 N/A
11:53 pm 23:53 Clear 29 -1.7 24 -4.4 82 82 E 6 9 30.54 1034 10 16.0934 N/A

Powered by AerisWeather